HS0QKD-4 Weather Reports


time (UTC)temp
C
wind
direction
speed
KPH
gust
KPH
rain 1hr
cm
rain 24hr
cm
rain mn
cm
humidity
%
barometer
mb
20260509094946 -17 0 0.0 0.0 0.00 0.00 0.00 87 740.0
20260509094408 -17 0 0.0 0.0 0.00 0.00 0.00 87 740.0
20260509093348 -17 0 0.0 0.0 0.00 0.00 0.00 84 740.0
20260509092952 -17 0 0.0 0.0 0.00 0.00 0.00 83 738.0
20260509091349 -17 0 0.0 0.0 0.00 0.00 0.00 81 738.0
20260509090241 -17 0 0.0 0.0 0.00 0.00 0.00 81 738.0
20260509085222 -17 0 0.0 0.0 0.00 0.00 0.00 83 738.0
20260509084157 -17 0 0.0 0.0 0.00 0.00 0.00 84 739.0
20260509083135 -17 0 0.0 0.0 0.00 0.00 0.00 84 739.0
20260509082219 -17 0 0.0 0.0 0.00 0.00 0.00 78 738.0
20260509073429 -17 0 0.0 0.0 0.00 0.00 0.00 82 739.0
20260509062411 -17 0 0.0 0.0 0.00 0.00 0.00 98 744.0
20260509033508 -17 0 0.0 0.0 0.00 0.00 0.00 99 747.0
20260509030507 -17 0 0.0 0.0 0.00 0.00 0.00 99 748.0
20260509025130 -17 0 0.0 0.0 0.00 0.00 0.00 99 748.0
20260509024108 -17 0 0.0 0.0 0.00 0.00 0.00 99 748.0
20260509023057 -17 0 0.0 0.0 0.00 0.00 0.00 99 749.0
20260509022024 -17 0 0.0 0.0 0.00 0.00 0.00 99 749.0
20260509021315 -17 0 0.0 0.0 0.00 0.00 0.00 99 750.0
20260509020028 -17 0 0.0 0.0 0.00 0.00 0.00 99 750.0
20260509014922 -17 0 0.0 0.0 0.00 0.00 0.00 99 750.0
20260509013957 -17 0 0.0 0.0 0.00 0.00 0.00 99 751.0
20260509012834 -17 0 0.0 0.0 0.00 0.00 0.00 99 751.0
20260509011812 -17 0 0.0 0.0 0.00 0.00 0.00 99 751.0
20260509010750 -17 0 0.0 0.0 0.00 0.00 0.00 99 751.0
20260509005728 -17 0 0.0 0.0 0.00 0.00 0.00 99 751.0
20260509004705 -17 0 0.0 0.0 0.00 0.00 0.00 99 751.0
20260509003644 -17 0 0.0 0.0 0.00 0.00 0.00 99 752.0
20260509002622 -17 0 0.0 0.0 0.00 0.00 0.00 99 752.0
20260509001559 -17 0 0.0 0.0 0.00 0.00 0.00 99 752.0
20260509000537 -17 0 0.0 0.0 0.00 0.00 0.00 99 752.0
20260508235516 -17 0 0.0 0.0 0.00 0.00 0.00 99 752.0
20260508234453 -17 0 0.0 0.0 0.00 0.00 0.00 99 752.0
20260508233431 -17 0 0.0 0.0 0.00 0.00 0.00 99 752.0
20260508232408 -17 0 0.0 0.0 0.00 0.00 0.00 99 752.0
20260508231350 -17 0 0.0 0.0 0.00 0.00 0.00 99 752.0
20260508230324 -17 0 0.0 0.0 0.00 0.00 0.00 99 752.0
20260508225306 -17 0 0.0 0.0 0.00 0.00 0.00 99 752.0
20260508224240 -17 0 0.0 0.0 0.00 0.00 0.00 99 752.0
20260508223218 -17 0 0.0 0.0 0.00 0.00 0.00 99 752.0
20260508222156 -17 0 0.0 0.0 0.00 0.00 0.00 99 752.0
20260508221134 -17 0 0.0 0.0 0.00 0.00 0.00 99 752.0
20260508220112 -17 0 0.0 0.0 0.00 0.00 0.00 99 751.0
20260508215050 -17 0 0.0 0.0 0.00 0.00 0.00 99 751.0
20260508214028 -17 0 0.0 0.0 0.00 0.00 0.00 99 751.0
20260508213006 -17 0 0.0 0.0 0.00 0.00 0.00 99 751.0
20260508211944 -17 0 0.0 0.0 0.00 0.00 0.00 99 751.0
20260508210922 -17 0 0.0 0.0 0.00 0.00 0.00 99 751.0
20260508205900 -17 0 0.0 0.0 0.00 0.00 0.00 99 751.0
20260508204837 -17 0 0.0 0.0 0.00 0.00 0.00 99 751.0
20260508203815 -17 0 0.0 0.0 0.00 0.00 0.00 99 751.0
20260508202753 -17 0 0.0 0.0 0.00 0.00 0.00 99 751.0
20260508201731 -17 0 0.0 0.0 0.00 0.00 0.00 99 751.0
20260508200709 -17 0 0.0 0.0 0.00 0.00 0.00 99 751.0
20260508195649 -17 0 0.0 0.0 0.00 0.00 0.00 99 751.0
20260508194626 -17 0 0.0 0.0 0.00 0.00 0.00 99 751.0
20260508193608 -17 0 0.0 0.0 0.00 0.00 0.00 99 752.0
20260508192541 -17 0 0.0 0.0 0.00 0.00 0.00 99 751.0
20260508191520 -17 0 0.0 0.0 0.00 0.00 0.00 99 751.0
20260508190457 -17 0 0.0 0.0 0.00 0.00 0.00 99 751.0
20260508185440 -17 0 0.0 0.0 0.00 0.00 0.00 99 751.0
20260508184415 -17 0 0.0 0.0 0.00 0.00 0.00 99 751.0
20260508183351 -17 0 0.0 0.0 0.00 0.00 0.00 99 751.0
20260508182329 -17 0 0.0 0.0 0.00 0.00 0.00 99 750.0
20260508181307 -17 0 0.0 0.0 0.00 0.00 0.00 99 751.0
20260508180245 -17 0 0.0 0.0 0.00 0.00 0.00 99 750.0
20260508175223 -17 0 0.0 0.0 0.00 0.00 0.00 99 751.0
20260508174211 -17 0 0.0 0.0 0.00 0.00 0.00 99 751.0
20260508173139 -17 0 0.0 0.0 0.00 0.00 0.00 99 751.0
20260508172117 -17 0 0.0 0.0 0.00 0.00 0.00 99 751.0
20260508171055 -17 0 0.0 0.0 0.00 0.00 0.00 99 751.0
20260508170032 -17 0 0.0 0.0 0.00 0.00 0.00 99 751.0
20260508165010 -17 0 0.0 0.0 0.00 0.00 0.00 99 752.0
20260508163948 -17 0 0.0 0.0 0.00 0.00 0.00 99 752.0
20260508162934 -17 0 0.0 0.0 0.00 0.00 0.00 99 752.0
20260508161904 -17 0 0.0 0.0 0.00 0.00 0.00 99 751.0
20260508160842 -17 0 0.0 0.0 0.00 0.00 0.00 99 752.0
20260508155822 -17 0 0.0 0.0 0.00 0.00 0.00 99 752.0
20260508154758 -17 0 0.0 0.0 0.00 0.00 0.00 99 752.0
20260508153741 -17 0 0.0 0.0 0.00 0.00 0.00 99 751.0
20260508152714 -17 0 0.0 0.0 0.00 0.00 0.00 99 752.0
20260508151652 -17 0 0.0 0.0 0.00 0.00 0.00 99 752.0
20260508150630 -17 0 0.0 0.0 0.00 0.00 0.00 99 752.0
20260508145608 -17 0 0.0 0.0 0.00 0.00 0.00 99 752.0
20260508144546 -17 0 0.0 0.0 0.00 0.00 0.00 99 752.0
20260508143525 -17 0 0.0 0.0 0.00 0.00 0.00 99 752.0
20260508142502 -17 0 0.0 0.0 0.00 0.00 0.00 99 752.0
20260508141441 -17 0 0.0 0.0 0.00 0.00 0.00 99 752.0
20260508140418 -17 0 0.0 0.0 0.00 0.00 0.00 99 752.0
20260508135400 -17 0 0.0 0.0 0.00 0.00 0.00 99 752.0
20260508134344 -17 0 0.0 0.0 0.00 0.00 0.00 99 751.0
20260508133311 -17 0 0.0 0.0 0.00 0.00 0.00 99 751.0
20260508132249 -17 0 0.0 0.0 0.00 0.00 0.00 99 751.0
20260508131228 -17 0 0.0 0.0 0.00 0.00 0.00 99 751.0
20260508130205 -17 0 0.0 0.0 0.00 0.00 0.00 99 751.0
20260508125146 -17 0 0.0 0.0 0.00 0.00 0.00 99 751.0
20260508124121 -17 0 0.0 0.0 0.00 0.00 0.00 99 751.0
20260508123059 -17 0 0.0 0.0 0.00 0.00 0.00 99 751.0
20260508122037 -17 0 0.0 0.0 0.00 0.00 0.00 99 751.0
20260508121015 -17 0 0.0 0.0 0.00 0.00 0.00 99 751.0
20260508115953 -17 0 0.0 0.0 0.00 0.00 0.00 99 751.0
20260508114931 -17 0 0.0 0.0 0.00 0.00 0.00 99 750.0
20260508113913 -17 0 0.0 0.0 0.00 0.00 0.00 99 750.0